| time (UTC) | temp C | wind direction | speed KPH | gust KPH | rain 1hr cm | rain 24hr cm | rain mn cm | humidity % | barometer mb |
| 20260504033059 | 13 | 235 | 9.7 | 17.7 | 0.00 | 0.00 | 0.00 | 40 | 1012.8 |
| 20260504031555 | 13 | 197 | 6.4 | 20.9 | 0.00 | 0.00 | 0.00 | 40 | 1012.6 |
| 20260504030055 | 13 | 214 | 9.7 | 16.1 | 0.00 | 0.00 | 0.00 | 43 | 1012.7 |
| 20260504024556 | 13 | 227 | 8.0 | 16.1 | 0.00 | 0.00 | 0.00 | 41 | 1012.6 |
| 20260504023057 | 13 | 202 | 6.4 | 11.3 | 0.00 | 0.00 | 0.00 | 41 | 1012.7 |
| 20260504021555 | 13 | 216 | 8.0 | 16.1 | 0.00 | 0.00 | 0.00 | 40 | 1012.7 |
| 20260504020127 | 14 | 222 | 8.0 | 14.5 | 0.00 | 0.00 | 0.00 | 36 | 1012.7 |
| 20260504014604 | 14 | 178 | 4.8 | 9.7 | 0.00 | 0.00 | 0.00 | 37 | 1012.6 |
| 20260504013116 | 14 | 192 | 4.8 | 8.0 | 0.00 | 0.00 | 0.00 | 36 | 1012.4 |
| 20260504011553 | 14 | 213 | 8.0 | 12.9 | 0.00 | 0.00 | 0.00 | 40 | 1012.3 |
| 20260504010054 | 14 | 195 | 3.2 | 6.4 | 0.00 | 0.00 | 0.00 | 40 | 1012.1 |
| 20260504004623 | 14 | 236 | 4.8 | 8.0 | 0.00 | 0.00 | 0.00 | 38 | 1012.0 |
| 20260504003059 | 15 | 243 | 3.2 | 9.7 | 0.00 | 0.00 | 0.00 | 35 | 1011.8 |
| 20260504001621 | 15 | 269 | 3.2 | 9.7 | 0.00 | 0.00 | 0.00 | 34 | 1011.5 |
| 20260504000104 | 15 | 301 | 3.2 | 11.3 | 0.00 | 0.00 | 0.00 | 32 | 1011.3 |
| 20260503234604 | 15 | 336 | 6.4 | 14.5 | 0.00 | 0.00 | 0.00 | 29 | 1011.2 |
| 20260503233101 | 15 | 331 | 6.4 | 22.5 | 0.00 | 0.00 | 0.00 | 32 | 1011.0 |
| 20260503231556 | 15 | 282 | 9.7 | 22.5 | 0.00 | 0.00 | 0.00 | 30 | 1011.0 |
| 20260503230112 | 15 | 313 | 11.3 | 25.7 | 0.00 | 0.00 | 0.00 | 28 | 1010.9 |
| 20260503224604 | 15 | 312 | 9.7 | 25.7 | 0.00 | 0.00 | 0.00 | 29 | 1010.8 |
| 20260503223057 | 15 | 279 | 12.9 | 30.6 | 0.00 | 0.00 | 0.00 | 28 | 1010.8 |
| 20260503221603 | 15 | 317 | 16.1 | 37.0 | 0.00 | 0.00 | 0.00 | 28 | 1010.7 |
| 20260503220058 | 15 | 316 | 12.9 | 32.2 | 0.00 | 0.00 | 0.00 | 29 | 1010.9 |
| 20260503214602 | 15 | 310 | 17.7 | 30.6 | 0.00 | 0.03 | 0.00 | 29 | 1010.8 |
| 20260503213053 | 14 | 303 | 17.7 | 41.8 | 0.00 | 0.03 | 0.00 | 31 | 1010.7 |
| 20260503211556 | 14 | 310 | 17.7 | 29.0 | 0.00 | 0.03 | 0.00 | 33 | 1010.8 |
| 20260503210053 | 13 | 295 | 22.5 | 37.0 | 0.00 | 0.03 | 0.00 | 30 | 1010.6 |
| 20260503204558 | 13 | 316 | 20.9 | 37.0 | 0.00 | 0.03 | 0.00 | 33 | 1010.4 |
| 20260503203115 | 13 | 312 | 14.5 | 40.2 | 0.00 | 0.03 | 0.00 | 31 | 1010.8 |
| 20260503201604 | 13 | 304 | 16.1 | 38.6 | 0.00 | 0.03 | 0.00 | 32 | 1010.7 |
| 20260503200056 | 13 | 281 | 12.9 | 38.6 | 0.00 | 0.03 | 0.00 | 32 | 1011.1 |
| 20260503194558 | 13 | 316 | 22.5 | 45.1 | 0.00 | 0.03 | 0.00 | 34 | 1011.1 |
| 20260503193056 | 12 | 296 | 27.4 | 45.1 | 0.00 | 0.03 | 0.00 | 33 | 1011.1 |
| 20260503191556 | 12 | 297 | 16.1 | 35.4 | 0.00 | 0.03 | 0.00 | 36 | 1011.2 |
| 20260503190110 | 12 | 265 | 14.5 | 33.8 | 0.00 | 0.03 | 0.00 | 36 | 1011.5 |
| 20260503184604 | 12 | 297 | 16.1 | 38.6 | 0.00 | 0.03 | 0.00 | 37 | 1011.6 |
| 20260503183101 | 11 | 274 | 16.1 | 43.5 | 0.00 | 0.03 | 0.00 | 39 | 1011.6 |
| 20260503181605 | 11 | 306 | 17.7 | 38.6 | 0.00 | 0.03 | 0.00 | 41 | 1011.5 |
| 20260503180055 | 11 | 257 | 27.4 | 37.0 | 0.00 | 0.03 | 0.00 | 42 | 1011.7 |
| 20260503174603 | 10 | 260 | 19.3 | 33.8 | 0.00 | 0.03 | 0.00 | 42 | 1011.8 |
| 20260503173105 | 11 | 308 | 19.3 | 40.2 | 0.00 | 0.03 | 0.00 | 44 | 1012.0 |
| 20260503171601 | 10 | 345 | 22.5 | 40.2 | 0.00 | 0.03 | 0.00 | 45 | 1011.6 |
| 20260503100106 | 7 | 355 | 20.9 | 33.8 | 0.00 | 0.03 | 0.00 | 56 | 1011.0 |
| 20260503081601 | 8 | 22 | 24.1 | 38.6 | 0.00 | 0.03 | 0.00 | 56 | 1010.4 |
| 20260503071559 | 9 | 34 | 17.7 | 25.7 | 0.00 | 0.03 | 0.00 | 56 | 1010.5 |
| 20260503060119 | 10 | 21 | 22.5 | 27.4 | 0.00 | 0.05 | 0.00 | 55 | 1010.7 |
| 20260503054627 | 10 | 10 | 24.1 | 30.6 | 0.00 | 0.05 | 0.00 | 55 | 1010.7 |
| 20260503053056 | 10 | 32 | 24.1 | 30.6 | 0.00 | 0.05 | 0.00 | 51 | 1010.7 |
| 20260503051601 | 10 | 11 | 24.1 | 29.0 | 0.00 | 0.05 | 0.00 | 50 | 1011.2 |
| 20260503050057 | 11 | 12 | 22.5 | 30.6 | 0.00 | 0.05 | 0.00 | 47 | 1011.2 |
| 20260503044554 | 11 | 360 | 17.7 | 24.1 | 0.00 | 0.05 | 0.00 | 47 | 1011.2 |
| 20260503043052 | 11 | 6 | 20.9 | 30.6 | 0.00 | 0.05 | 0.00 | 47 | 1011.3 |
| 20260503041556 | 11 | 4 | 20.9 | 30.6 | 0.00 | 0.05 | 0.00 | 49 | 1011.5 |
| 20260503040100 | 11 | 15 | 17.7 | 24.1 | 0.00 | 0.05 | 0.00 | 45 | 1011.5 |
| 20260503034555 | 11 | 355 | 20.9 | 27.4 | 0.00 | 0.05 | 0.05 | 43 | 1011.4 |